Wind_Speed
15 15 15 15 16 15 14 12 11 11 11 10 10 10 9 9 9 9 9 9 10 12 13 14 15 16 16 17 17 18 19 20 21 21 20 21 21 22 23 23 23 23 24
16 16 16 16 17 17 15 14 13 13 12 11 10 10 10 11 10 10 10 11 12 13 14 15 16 17 17 18 17 17 18 18 19 20 20 21 22 23 24 25 25 26 27
18 18 18 18 18 18 17 15 14 14 14 13 11 11 11 11 11 11 12 12 13 14 15 16 16 17 18 18 18 17 17 17 17 18 19 21 22 24 25 26 27 27 28
19 19 19 19 19 19 18 16 15 15 15 13 12 11 11 12 12 13 13 13 13 15 15 16 17 18 18 19 19 19 19 19 19 20 21 23 24 25 27 28 28 29 29
20 20 19 19 19 19 18 17 16 16 15 14 13 12 12 12 13 13 14 14 13 13 13 14 15 16 17 19 19 20 21 21 22 23 23 25 25 26 27 27 28 28 28
23 23 23 22 21 20 19 18 17 16 15 15 15 14 13 13 13 13 14 15 15 14 14 15 16 16 18 19 20 21 22 23 24 24 25 26 27 27 28 28 29 29 29
25 26 27 27 25 23 20 19 17 17 16 16 16 15 14 14 14 13 14 15 15 14 14 15 16 17 18 19 20 21 22 23 24 25 25 26 27 28 29 30 31 31 31
26 26 27 28 27 24 22 20 18 17 17 17 17 17 16 15 14 13 14 14 14 13 12 13 14 15 16 18 19 20 21 22 22 22 23 24 26 27 28 29 30 31 32
26 26 26 27 27 25 22 21 20 19 18 18 19 19 18 17 16 16 15 14 14 14 14 15 17 18 20 22 24 24 25 25 25 25 25 26 27 29 30 31 32 33 34
26 26 27 27 26 25 23 21 21 21 20 20 20 21 21 20 19 19 18 17 17 17 18 19 20 22 24 25 26 27 27 27 27 27 27 28 28 29 30 31 32 33 34
27 28 28 28 28 27 25 23 22 21 20 21 22 23 23 23 23 22 22 21 21 20 20 21 22 23 24 24 24 23 23 23 25 26 27 29 30 31 32 32 33 33 33
29 28 29 30 30 29 28 26 24 22 21 22 23 24 25 26 27 26 25 25 24 23 23 23 24 24 24 22 21 19 19 20 22 24 26 27 29 31 32 34 34 34 33
32 30 31 32 32 31 30 29 27 25 24 23 24 25 27 29 29 29 28 28 28 27 26 25 25 26 25 23 21 19 19 20 23 25 27 29 31 33 34 35 35 35 34
33 32 32 34 35 34 33 32 30 28 27 26 26 27 29 30 30 30 30 30 30 29 28 27 27 28 27 25 23 22 22 24 26 29 31 33 35 36 36 36 36 36 36
35 34 34 34 36 37 36 35 34 32 30 28 28 29 30 31 31 30 31 30 30 29 29 29 29 29 29 28 26 26 27 28 31 33 35 36 37 37 36 35 34 35 35
37 36 35 34 35 36 37 37 36 35 33 32 31 30 31 31 31 30 30 30 30 30 30 30 30 31 31 30 29 30 31 32 34 36 37 37 37 36 35 34 34 34 35
38 37 36 35 35 35 36 36 36 36 36 34 33 32 32 32 31 30 30 30 31 31 31 30 31 32 32 31 31 32 33 35 37 38 38 38 37 37 36 36 36 37 38
40 39 38 37 36 36 36 36 36 37 37 36 35 33 32 32 31 30 30 31 31 31 31 31 32 33 33 32 32 33 35 38 39 39 39 39 39 38 38 39 40 41 43
42 42 42 40 39 39 38 36 36 37 38 37 36 34 33 33 33 32 32 32 32 32 32 32 33 33 33 33 33 35 37 39 40 40 40 40 40 41 42 43 44 46 47
42 42 43 43 43 43 41 39 38 38 39 38 37 35 34 35 34 34 34 34 33 33 33 33 33 33 34 35 36 38 40 41 42 42 42 42 42 44 45 47 49 51 52
42 42 41 43 44 45 44 42 41 40 40 39 37 35 35 35 36 36 36 35 34 34 35 34 34 34 36 38 40 42 43 43 44 44 44 44 45 47 49 51 53 55 57
43 43 41 42 44 45 45 44 43 42 41 39 37 35 35 36 37 38 37 36 36 37 37 36 37 38 39 41 43 46 47 46 46 47 47 47 48 51 53 56 58 60 61
44 44 43 42 43 44 45 44 43 42 40 37 36 36 36 36 38 38 38 38 39 39 39 39 40 42 43 44 46 47 48 48 47 48 50 51 53 56 58 61 63 65 66
44 45 43 43 43 44 43 42 41 41 38 37 36 36 36 36 37 38 39 40 42 42 42 42 44 45 46 47 48 49 49 50 50 48 49 53 56 58 61 64 66 68 70
46 45 44 44 44 43 42 40 40 40 37 36 36 36 37 37 38 39 40 42 43 44 44 45 46 47 49 50 50 50 50 52 53 53 53 55 58 60 62 65 68 70 72
49 46 44 44 44 43 41 39 39 39 37 36 36 37 38 39 40 40 41 43 44 45 46 47 48 49 50 51 51 51 52 53 54 57 59 60 61 63 65 67 69 71 73
Wind_Direction
257 259 258 254 251 250 252 256 261 267 271 270 262 253 251 248 246 246 247 251 257 264 269 271 272 273 274 274 276 276 275 271 268 267 270 273 275 276 276 276 277 279 282
255 255 254 255 255 257 259 262 265 270 274 271 261 254 251 247 243 243 247 251 256 261 263 265 268 271 272 274 276 276 275 273 271 270 272 275 276 276 276 276 278 281 283
251 252 252 253 256 259 262 266 267 271 273 270 262 257 255 251 246 245 248 251 256 259 261 263 266 269 271 273 275 275 274 273 273 274 275 277 278 278 278 279 280 282 283
248 251 253 253 254 257 260 263 267 271 272 269 263 261 261 257 253 251 253 255 256 257 258 261 264 267 269 271 273 273 273 273 274 276 277 278 278 279 279 281 281 282 282
252 256 258 258 256 255 257 259 263 267 268 266 262 261 261 259 257 257 258 258 256 257 258 261 264 267 270 272 275 275 276 277 278 279 280 280 280 281 281 283 284 284 283
259 263 264 263 259 256 255 258 260 261 261 260 259 258 258 258 257 259 261 260 258 258 259 262 265 268 272 276 278 280 281 281 282 282 282 282 282 282 282 283 284 284 284
257 260 263 264 262 259 257 256 256 256 254 253 255 256 256 257 255 256 259 258 257 258 261 265 269 274 278 281 282 283 283 282 282 282 282 281 282 282 283 283 283 282 281
257 260 262 264 264 263 261 258 254 252 251 250 251 253 255 257 256 254 256 256 256 258 262 267 272 277 280 283 284 285 284 283 282 281 282 283 283 284 284 285 284 283 281
257 259 260 261 262 262 262 260 257 254 253 251 250 249 250 253 254 252 250 251 254 259 265 272 279 285 287 287 285 284 282 280 281 282 284 285 286 287 287 286 285 283 281
255 257 256 254 255 257 259 260 260 258 256 254 252 249 248 249 251 251 250 251 255 262 271 279 287 292 293 292 290 286 281 278 278 281 284 287 289 289 289 289 287 285 283
252 253 251 248 248 250 253 257 259 260 259 257 257 254 251 249 249 250 252 254 258 265 274 283 290 295 297 298 296 293 287 283 282 283 285 287 289 290 290 290 290 289 287
249 251 249 246 246 248 251 253 257 260 262 261 260 259 257 254 252 252 254 257 260 266 273 281 288 293 297 298 298 296 292 290 289 288 288 288 289 289 289 289 288 287 286
248 248 248 245 244 246 249 252 255 259 263 265 263 261 260 259 257 255 256 259 262 266 272 278 284 290 293 293 293 293 292 291 291 291 291 291 292 292 292 291 288 286 283
251 250 249 246 243 244 246 250 254 257 261 265 265 263 261 261 260 259 258 260 262 265 270 276 282 287 289 288 286 286 287 289 292 294 296 296 296 296 295 292 289 285 283
250 250 250 249 248 246 247 250 254 257 260 263 265 266 264 262 261 261 260 260 261 265 269 275 279 285 287 285 283 283 285 289 293 296 297 298 298 297 296 293 290 286 284
248 248 249 250 251 252 253 255 257 259 261 262 264 266 267 266 264 261 259 259 261 264 268 273 277 283 285 284 282 282 284 288 292 294 297 297 297 296 295 293 291 288 286
247 247 247 249 250 252 254 257 260 261 262 263 264 266 268 268 265 260 258 259 262 264 267 271 276 281 284 284 282 282 284 288 291 294 296 296 295 294 292 290 289 287 286
245 246 247 249 250 252 254 257 260 261 263 264 264 265 266 266 263 258 257 260 262 264 267 272 277 281 283 282 281 283 286 289 291 293 295 294 293 291 289 288 286 285 284
244 245 247 249 251 253 256 259 261 261 262 263 263 263 263 263 260 257 257 260 263 265 269 274 279 282 282 281 283 286 288 290 292 293 293 292 292 290 288 287 285 284 283
244 245 245 248 251 253 255 258 260 261 262 263 262 261 260 260 259 257 257 259 263 267 271 276 281 283 283 284 285 288 291 292 292 292 292 291 290 288 287 286 285 284 284
246 247 246 246 249 251 253 255 257 260 261 263 262 261 260 260 259 256 257 260 264 269 273 278 282 284 285 287 289 291 292 293 292 292 291 289 289 289 289 288 287 287 286
246 247 247 245 247 249 251 253 256 258 261 263 263 261 261 260 258 257 259 262 267 271 275 279 282 284 287 289 291 293 294 292 292 292 291 290 291 291 291 291 291 291 290
245 247 247 246 247 249 251 253 255 257 260 261 261 259 259 260 259 259 261 265 269 273 276 280 283 285 287 289 291 292 292 291 292 291 292 292 293 293 294 294 294 295 294
244 245 246 246 247 249 251 253 255 257 258 257 257 258 260 261 261 261 264 267 271 275 278 282 284 286 287 289 290 291 290 291 290 288 287 289 290 292 293 294 295 295 295
242 243 244 244 245 248 250 253 255 258 258 258 259 259 260 261 263 264 267 270 273 276 279 282 284 286 288 289 291 290 290 291 291 290 289 289 290 291 291 292 293 293 293
239 240 241 242 244 247 250 253 256 259 260 260 260 260 261 263 265 267 270 272 275 278 280 282 284 286 288 290 290 290 291 292 292 292 292 292 292 292 293 293 293 294 294
Height
5857 5857 5858 5859 5860 5860 5859 5859 5859 5858 5858 5857 5857 5857 5856 5856 5855 5855 5854 5854 5854 5854 5854 5854 5853 5853 5854 5854 5854 5854 5854 5854 5854 5854 5854 5855 5855 5855 5855 5854 5854 5853 5852
5854 5854 5854 5855 5856 5856 5857 5856 5856 5856 5855 5854 5854 5854 5854 5854 5853 5852 5852 5852 5852 5852 5851 5851 5851 5850 5850 5851 5851 5851 5851 5851 5851 5851 5851 5851 5852 5852 5851 5851 5850 5849 5848
5851 5851 5851 5851 5852 5852 5853 5853 5853 5853 5852 5852 5851 5851 5851 5851 5851 5850 5849 5849 5849 5849 5849 5848 5848 5848 5848 5847 5847 5848 5848 5848 5847 5847 5847 5847 5847 5847 5847 5846 5845 5844 5843
5847 5847 5847 5848 5848 5848 5849 5849 5849 5849 5849 5849 5848 5848 5848 5848 5848 5848 5847 5847 5847 5847 5846 5846 5845 5845 5845 5844 5844 5844 5844 5844 5844 5843 5843 5843 5842 5842 5841 5841 5840 5839 5838
5844 5844 5844 5845 5845 5845 5845 5845 5846 5846 5846 5846 5845 5845 5845 5845 5845 5845 5845 5845 5844 5844 5843 5843 5843 5842 5842 5842 5841 5841 5841 5840 5840 5839 5838 5838 5837 5837 5836 5835 5834 5834 5833
5841 5841 5841 5841 5841 5841 5841 5842 5842 5842 5842 5842 5842 5843 5843 5842 5842 5842 5842 5841 5841 5841 5840 5840 5840 5839 5839 5838 5838 5837 5837 5836 5835 5834 5833 5833 5832 5831 5830 5830 5829 5828 5827
5837 5837 5837 5837 5837 5837 5837 5838 5838 5839 5839 5839 5839 5839 5840 5840 5839 5839 5838 5838 5837 5837 5837 5837 5837 5836 5836 5835 5834 5833 5832 5831 5830 5829 5828 5827 5826 5825 5825 5824 5823 5822 5821
5833 5833 5833 5833 5833 5833 5833 5834 5834 5835 5835 5835 5836 5836 5836 5836 5836 5835 5835 5835 5835 5835 5835 5835 5834 5833 5832 5831 5830 5829 5828 5827 5826 5824 5823 5821 5820 5820 5819 5818 5817 5816 5814
5828 5829 5829 5829 5829 5829 5830 5830 5830 5831 5831 5832 5832 5832 5832 5832 5832 5832 5832 5832 5832 5832 5832 5831 5830 5829 5828 5827 5826 5824 5823 5822 5820 5819 5818 5816 5815 5814 5813 5812 5810 5809 5808
5824 5824 5824 5824 5825 5825 5826 5826 5826 5826 5827 5828 5828 5828 5828 5828 5828 5829 5828 5828 5828 5828 5828 5827 5826 5824 5823 5821 5820 5818 5816 5815 5814 5813 5812 5811 5809 5808 5806 5805 5803 5802 5800
5819 5819 5819 5819 5820 5820 5821 5822 5822 5822 5822 5823 5823 5823 5823 5824 5824 5824 5825 5824 5824 5824 5823 5822 5821 5819 5818 5816 5813 5811 5809 5808 5807 5806 5805 5804 5803 5802 5800 5798 5796 5794 5793
5813 5814 5815 5815 5815 5816 5816 5817 5817 5818 5818 5818 5819 5819 5819 5819 5819 5820 5820 5820 5819 5819 5818 5817 5816 5814 5812 5811 5808 5805 5804 5802 5801 5800 5799 5798 5797 5795 5793 5791 5789 5788 5786
5808 5809 5810 5810 5810 5811 5812 5812 5813 5813 5813 5814 5814 5814 5813 5813 5814 5814 5814 5814 5814 5813 5812 5811 5810 5809 5807 5805 5803 5801 5799 5797 5796 5795 5794 5792 5790 5788 5786 5784 5782 5780 5779
5803 5803 5804 5804 5805 5806 5807 5807 5808 5808 5809 5809 5809 5808 5808 5808 5808 5808 5808 5808 5807 5807 5806 5805 5804 5803 5801 5800 5798 5796 5794 5792 5790 5789 5787 5784 5782 5780 5778 5775 5774 5772 5771
5797 5797 5798 5798 5799 5800 5801 5802 5803 5803 5804 5804 5803 5803 5802 5802 5803 5803 5802 5802 5801 5801 5800 5799 5798 5797 5795 5794 5792 5790 5788 5786 5784 5782 5779 5777 5774 5771 5769 5766 5765 5763 5762
5789 5790 5791 5792 5793 5794 5796 5796 5797 5798 5798 5798 5798 5797 5797 5797 5797 5797 5796 5795 5795 5794 5793 5793 5792 5790 5789 5787 5785 5783 5781 5779 5777 5774 5771 5769 5766 5763 5760 5758 5756 5755 5753
5782 5783 5784 5785 5786 5788 5789 5790 5790 5791 5792 5792 5792 5792 5792 5791 5791 5791 5790 5789 5788 5787 5786 5786 5785 5783 5781 5780 5778 5776 5774 5772 5769 5766 5763 5760 5757 5755 5752 5750 5748 5746 5745
5774 5776 5777 5778 5779 5780 5782 5782 5783 5784 5785 5785 5786 5786 5786 5785 5785 5784 5784 5783 5781 5781 5780 5779 5777 5776 5774 5772 5770 5768 5766 5764 5761 5758 5755 5752 5749 5747 5744 5742 5740 5738 5736
5766 5768 5770 5771 5772 5773 5774 5776 5777 5777 5778 5778 5779 5779 5779 5779 5778 5778 5777 5776 5775 5774 5773 5771 5770 5768 5766 5764 5762 5760 5758 5755 5752 5749 5746 5743 5741 5738 5735 5733 5731 5728 5726
5758 5760 5762 5764 5765 5766 5767 5768 5769 5770 5770 5771 5772 5772 5772 5772 5772 5771 5770 5769 5768 5767 5766 5764 5762 5760 5758 5756 5754 5752 5749 5746 5743 5740 5737 5734 5731 5728 5725 5723 5720 5717 5714
5749 5751 5754 5756 5757 5757 5759 5760 5761 5762 5762 5763 5764 5765 5765 5765 5765 5764 5763 5762 5761 5760 5759 5757 5755 5753 5751 5748 5745 5743 5740 5736 5733 5730 5727 5724 5721 5718 5714 5711 5707 5704 5701
5741 5742 5745 5747 5748 5749 5750 5752 5753 5754 5755 5756 5757 5758 5758 5758 5757 5756 5756 5755 5754 5753 5751 5750 5748 5746 5743 5740 5736 5733 5730 5727 5723 5720 5716 5713 5709 5706 5701 5697 5693 5689 5685
5731 5734 5736 5739 5740 5741 5742 5744 5746 5746 5747 5748 5749 5750 5750 5750 5750 5749 5749 5748 5746 5745 5743 5741 5739 5737 5735 5732 5728 5724 5720 5717 5714 5711 5705 5701 5696 5692 5687 5682 5677 5672 5667
5721 5724 5728 5730 5732 5733 5734 5736 5738 5739 5740 5741 5741 5742 5743 5742 5742 5742 5741 5740 5738 5737 5735 5732 5730 5727 5725 5722 5719 5714 5711 5707 5704 5702 5699 5692 5686 5681 5674 5668 5662 5656 5650
5709 5714 5718 5721 5723 5725 5727 5729 5730 5731 5732 5733 5734 5735 5735 5735 5734 5734 5732 5731 5730 5728 5725 5723 5720 5717 5714 5711 5707 5704 5700 5695 5691 5688 5686 5682 5676 5670 5663 5656 5649 5641 5634
5697 5702 5707 5711 5714 5717 5720 5722 5723 5724 5725 5725 5726 5727 5727 5727 5726 5725 5723 5722 5720 5718 5716 5713 5710 5707 5703 5700 5696 5692 5688 5684 5679 5674 5670 5666 5661 5655 5648 5641 5633 5624 5616